Temperature
11 11 11 11 12 12 12 12 12 12 12 12 12 13 13 13 13 13 13 14 13 14 14 14 14 14 14 14 14 14 14 13 13 13 13 13 13 13 13 13 13 13 13
10 10 11 11 11 11 11 12 12 12 12 12 12 12 13 13 13 13 13 13 13 13 13 14 14 14 14 14 14 14 13 13 13 13 13 12 12 13 13 13 12 12 12
10 10 11 11 11 11 11 11 12 12 12 12 12 12 12 12 12 13 13 13 13 13 13 13 14 14 14 14 14 13 13 13 13 13 13 13 13 12 12 12 12 12 12
9 10 10 10 11 11 11 11 11 11 12 12 12 12 12 12 12 12 12 12 13 13 13 13 13 13 13 13 13 13 13 13 13 13 13 13 13 12 12 11 12 11 11
9 9 10 10 10 10 11 11 11 11 11 11 11 11 11 12 12 12 12 12 12 12 12 12 12 13 13 13 13 13 13 13 13 12 12 12 12 12 12 11 11 11 11
8 9 9 10 10 10 10 10 10 11 11 11 11 11 11 11 11 11 12 12 12 12 12 12 12 12 12 12 12 12 12 12 12 12 12 12 12 12 12 12 11 11 11
8 8 9 9 9 10 10 10 10 10 11 11 11 11 11 11 11 11 11 11 11 11 12 12 12 12 12 12 12 12 12 12 12 12 12 12 12 12 12 11 11 11 10
7 8 8 9 9 9 9 10 10 10 10 10 10 10 11 11 11 11 11 11 11 11 11 11 11 11 11 11 12 12 12 12 12 11 11 11 11 11 11 11 11 10 10
7 7 8 8 8 9 9 9 10 10 10 10 10 10 10 10 10 10 11 11 11 11 11 11 11 11 11 11 11 11 11 11 11 11 11 11 11 11 10 10 10 10 9
7 7 7 8 8 8 9 9 9 9 9 9 9 10 10 10 10 10 10 10 10 10 10 10 10 10 10 10 10 10 10 10 10 10 10 10 10 10 10 10 10 9 9
6 7 7 7 7 8 8 8 9 9 9 9 9 9 9 9 9 10 10 10 10 10 10 10 10 10 10 10 10 10 10 10 10 10 10 10 10 9 9 9 9 9 9
6 6 6 7 7 7 7 8 8 8 8 8 9 9 9 9 9 9 9 9 9 9 9 9 9 9 9 9 9 9 9 9 9 9 9 9 9 9 9 9 8 8 8
6 6 6 6 6 7 7 7 7 8 8 8 8 8 8 8 8 8 8 8 8 8 8 8 8 9 9 9 9 8 8 8 8 8 8 8 8 8 8 8 8 8 7
5 5 5 6 6 6 7 7 7 7 7 7 7 7 7 7 7 7 7 7 7 7 8 8 8 8 8 8 8 7 7 7 7 7 7 7 8 8 7 7 7 7 7
5 5 5 5 6 6 6 6 6 6 6 7 7 7 7 7 7 7 7 7 7 7 7 7 7 7 7 7 7 7 7 7 7 7 7 7 7 7 7 7 7 6 6
5 5 5 5 5 5 5 6 6 6 6 6 6 6 6 6 6 6 6 6 6 6 6 6 6 6 6 6 6 6 6 6 6 6 6 6 6 6 6 6 6 6 6
5 5 5 5 5 5 5 5 5 5 5 5 5 5 5 5 5 5 5 5 5 5 5 5 5 5 5 5 5 5 5 5 5 5 5 5 5 6 5 5 5 5 5
5 5 5 4 4 4 4 4 5 5 5 5 4 4 4 5 4 5 5 4 4 4 4 4 4 4 4 4 4 4 4 4 4 4 4 4 5 5 5 4 4 4 4
5 4 4 4 4 4 4 4 4 4 4 4 4 4 4 4 4 4 4 4 4 4 4 3 3 3 4 4 4 3 3 3 4 4 4 4 4 4 4 4 4 4 4
4 4 4 4 4 4 4 4 4 4 4 3 3 3 3 3 3 3 3 3 3 3 3 3 3 3 3 3 3 3 3 3 3 3 3 3 3 3 3 3 3 3 3
4 4 4 4 3 3 3 3 3 3 3 3 3 2 2 2 2 2 2 2 2 2 2 2 2 2 2 2 2 2 2 2 2 2 2 2 3 3 3 2 3 3 2
4 4 4 3 3 3 3 3 3 2 2 2 2 2 2 2 2 1 1 1 1 1 1 1 1 1 1 1 1 1 1 1 1 2 2 2 2 2 2 2 2 2 1
4 3 3 3 3 3 2 2 2 2 1 1 1 1 1 1 1 1 1 0 0 0 0 0 0 0 0 0 0 0 0 1 1 1 1 1 1 1 1 1 1 1 1
3 3 3 3 2 2 2 1 1 1 1 1 1 1 1 1 0 0 -0 -0 -1 -1 -1 -1 -1 -1 -1 -1 -1 -0 -0 -0 -0 -0 0 0 0 0 0 0 0 0 0
3 3 3 2 2 2 1 1 1 1 1 0 0 0 -0 -0 -0 -1 -1 -1 -1 -2 -2 -2 -2 -2 -1 -1 -1 -1 -1 -1 -1 -1 -1 -1 -1 -0 -0 -0 -0 -0 -1
3 3 2 2 2 1 1 1 0 0 -0 -0 -0 -1 -1 -1 -1 -1 -1 -1 -2 -2 -2 -2 -2 -2 -2 -2 -2 -2 -2 -2 -2 -2 -2 -1 -1 -1 -1 -1 -1 -1 -1
Wind_Speed
8 6 6 6 6 8 8 8 8 8 7 6 6 6 7 6 6 6 8 10 10 11 9 7 8 8 8 8 7 4 4 3 3 2 1 1 1 1 2 3 3 4 6
5 4 4 5 6 8 7 7 8 8 8 7 6 5 5 5 5 5 7 9 10 11 10 9 9 8 7 8 7 5 3 3 4 4 3 1 1 1 1 2 3 3 5
4 3 3 4 5 5 7 7 7 7 7 6 5 5 4 3 4 4 5 7 9 9 9 9 8 8 8 8 8 7 7 5 3 3 4 4 5 2 1 2 2 3 3
1 1 1 2 3 3 4 5 7 6 6 7 6 7 6 5 4 4 4 5 6 7 8 8 8 8 7 8 8 7 5 7 5 3 2 3 3 3 2 1 1 3 3
2 2 1 1 1 2 4 5 5 5 5 6 7 7 6 4 3 4 5 5 6 7 8 8 8 7 7 7 7 6 6 5 6 5 3 2 1 2 3 3 2 1 2
4 3 3 3 2 2 3 5 6 5 5 5 5 6 6 5 5 5 5 5 5 5 7 7 7 7 6 7 7 7 7 6 6 5 4 4 4 4 4 4 4 3 2
5 4 4 4 4 4 4 5 6 5 5 5 4 4 5 5 5 5 5 5 4 4 7 7 7 6 6 7 6 7 7 7 7 7 5 5 5 3 3 4 3 3 2
6 6 6 5 4 5 5 5 6 5 4 4 4 3 3 3 2 3 4 5 4 4 6 6 7 7 7 7 6 6 6 6 7 7 7 5 5 4 4 4 4 3 3
8 7 7 6 6 5 5 5 6 6 5 4 4 3 2 2 1 2 2 3 2 3 5 6 6 6 7 7 7 6 6 6 7 7 7 6 5 5 4 4 5 5 5
9 8 8 8 7 6 6 7 7 6 5 4 4 3 2 2 1 2 2 2 2 2 4 4 5 6 6 6 6 6 6 6 6 6 7 7 5 4 4 4 4 4 5
9 9 9 9 9 9 9 8 7 6 5 5 4 4 4 3 3 3 2 1 1 2 3 4 5 5 6 6 6 7 6 7 7 7 8 8 6 6 5 4 4 4 4
8 9 10 10 10 10 10 9 8 7 6 5 5 5 4 4 3 2 2 2 1 1 2 2 3 5 5 6 7 7 8 9 9 9 8 8 7 7 6 5 6 5 5
9 9 9 9 9 9 9 9 8 7 7 6 6 6 5 4 3 3 2 2 2 1 1 2 3 4 4 5 6 7 8 8 9 9 10 9 8 8 6 7 6 5 5
8 8 8 8 9 8 8 8 8 8 7 7 7 6 5 4 4 3 3 3 2 2 2 1 2 3 3 4 5 6 6 7 7 8 8 9 9 10 9 8 8 6 6
7 8 7 7 8 8 8 8 8 7 7 7 7 7 6 5 5 5 4 3 3 3 2 2 2 2 3 4 5 5 6 6 6 6 7 7 9 11 10 8 8 8 7
5 6 6 6 7 7 7 7 7 7 7 7 7 6 6 6 6 5 5 5 4 3 3 3 3 3 4 6 8 7 5 6 7 7 6 7 9 11 14 14 13 13 10
3 4 4 5 5 6 6 6 6 6 7 7 7 7 6 6 6 6 6 5 5 4 4 4 4 5 6 9 9 9 6 6 7 7 6 6 7 10 8 11 13 13 15
2 2 3 4 4 5 5 5 5 6 7 7 7 7 6 6 6 6 6 6 5 5 4 5 5 5 7 9 10 9 6 6 6 7 7 8 8 8 9 8 7 7 7
2 1 1 2 3 4 4 5 6 6 7 7 7 7 6 6 7 7 6 5 5 5 5 5 5 6 7 9 10 9 5 5 7 7 7 8 8 12 13 9 8 6 4
2 2 2 3 4 4 3 5 6 6 7 6 6 6 6 6 6 6 6 5 5 5 6 6 6 6 7 10 10 9 4 6 6 6 7 10 11 13 15 11 10 10 7
2 2 3 3 2 2 3 4 5 5 5 5 5 6 6 6 5 6 5 6 6 6 6 7 7 7 8 10 11 10 5 5 6 6 6 7 13 15 16 14 10 12 9
2 2 2 2 2 3 3 4 4 4 4 4 5 6 6 6 6 6 6 6 6 6 7 7 7 6 7 8 10 12 11 8 6 6 6 7 12 14 15 13 12 14 11
3 2 2 1 2 3 2 3 4 4 4 5 5 5 6 6 6 6 6 6 5 5 6 7 8 8 6 7 11 12 12 12 7 6 8 9 11 12 11 13 14 12 8
3 2 2 1 1 2 2 2 3 4 4 5 6 6 6 6 6 6 5 6 6 6 7 7 8 8 7 6 6 6 8 9 7 6 7 9 10 8 8 9 9 8 8
3 2 2 1 2 2 2 3 3 4 4 5 5 6 6 6 6 6 6 6 6 7 8 7 7 8 9 9 12 9 7 6 6 5 3 3 3 5 5 5 6 6 7
3 2 1 1 2 2 3 3 3 3 4 5 5 5 5 6 6 7 8 9 9 13 14 13 11 9 12 16 15 15 14 13 10 5 4 5 5 6 6 7 7 7 8
Wind_Direction
251 231 216 213 195 185 180 184 180 177 170 169 168 173 183 183 184 184 182 182 185 185 183 182 182 184 189 188 183 176 176 182 158 127 98 359 1 185 183 163 152 146 147
242 229 218 208 195 187 187 189 184 180 176 180 175 174 172 179 182 185 185 188 189 188 188 184 187 186 186 183 183 171 171 182 173 154 142 206 295 275 196 178 170 160 142
229 221 216 207 189 184 183 188 183 180 178 174 160 154 154 153 173 189 192 196 191 191 190 187 185 186 186 189 189 181 177 186 198 178 163 177 216 214 240 217 186 170 160
205 147 195 197 188 188 173 172 167 170 174 170 170 170 178 182 188 192 196 201 193 188 188 187 187 188 188 190 192 186 182 176 189 197 202 190 165 169 196 246 200 177 179
75 63 58 152 173 161 155 162 149 152 163 163 172 175 179 180 176 177 186 199 197 192 193 186 185 186 189 192 192 187 185 185 189 188 183 189 189 174 176 206 209 202 209
52 44 30 44 65 104 134 136 137 139 136 141 156 169 168 168 171 178 186 199 200 197 199 191 188 190 190 194 196 194 190 193 195 197 192 189 188 195 188 199 200 204 209
44 43 32 39 56 90 113 122 126 124 120 120 131 149 156 161 174 183 191 196 199 203 202 196 194 194 195 197 197 197 200 197 197 204 211 213 215 191 184 185 194 200 200
44 44 37 40 54 74 91 101 101 100 100 107 112 121 125 152 174 192 195 201 202 203 198 195 198 199 196 197 198 203 210 203 204 210 210 215 217 203 193 185 177 189 208
42 38 35 42 53 60 69 92 98 91 85 89 91 94 99 121 158 175 172 187 190 197 193 195 200 202 201 201 198 207 210 206 210 212 211 213 212 205 198 187 181 178 200
34 33 40 40 47 52 58 72 81 84 77 74 77 68 67 86 108 113 105 156 180 196 183 189 199 206 208 205 202 209 210 211 217 213 211 214 206 199 195 190 187 187 189
39 35 37 39 46 49 52 56 60 67 66 64 67 64 56 65 69 65 56 67 168 193 191 201 204 211 213 211 211 214 208 213 218 213 211 215 200 198 196 190 183 188 179
41 38 39 40 44 45 45 46 48 55 56 59 62 59 53 57 61 47 33 35 25 217 205 217 223 223 221 218 216 219 217 215 216 214 210 213 201 198 194 192 192 191 181
46 42 41 41 41 42 42 40 37 39 41 46 48 47 46 47 45 34 20 25 17 343 244 211 227 231 229 228 228 227 227 225 223 217 213 211 198 205 200 197 195 189 181
50 46 41 37 36 37 37 34 29 29 33 38 40 35 33 34 29 26 27 21 15 3 345 302 257 247 244 241 236 230 231 233 232 226 219 213 206 208 201 200 196 184 179
46 42 37 31 30 31 30 30 29 28 32 38 36 28 22 24 24 20 19 18 16 3 348 331 318 294 265 250 246 239 234 233 235 233 226 219 212 210 204 202 196 186 184
47 42 41 35 28 27 26 25 25 22 31 37 32 25 22 21 19 13 10 9 3 353 347 332 318 302 289 276 268 261 245 238 235 236 232 224 217 214 213 211 202 192 188
63 50 40 33 24 19 23 23 16 19 30 33 26 20 16 15 10 5 6 360 353 350 341 327 310 293 284 278 272 264 258 245 240 235 231 231 224 214 211 212 208 206 205
83 50 37 30 20 19 23 22 24 27 30 26 18 11 10 7 1 4 1 351 345 342 332 320 309 301 296 293 285 277 266 254 249 241 231 229 226 213 202 198 198 201 202
129 90 50 42 32 24 18 29 29 25 26 17 9 1 359 358 357 356 349 341 337 333 323 315 308 300 298 297 293 288 268 258 256 250 237 230 227 222 209 197 193 193 200
106 91 62 49 40 15 20 40 26 22 14 1 355 353 356 354 347 339 332 327 325 319 317 313 307 299 296 296 295 291 272 263 263 256 243 233 231 226 213 200 191 197 193
116 101 83 60 27 6 34 39 23 6 346 345 350 354 353 346 336 331 327 322 321 319 315 309 305 299 295 296 293 289 280 262 258 254 251 241 233 228 218 208 200 202 180
121 110 94 56 9 13 35 28 0 334 338 348 351 347 343 340 341 336 330 327 325 321 316 314 311 303 296 295 293 290 284 280 262 254 251 246 235 228 222 215 203 195 178
155 141 124 71 7 7 28 13 334 336 347 351 344 337 335 334 335 332 328 328 327 323 318 316 312 309 304 298 297 294 289 284 277 263 256 250 240 229 223 213 200 190 175
170 155 132 93 340 338 351 332 326 341 353 347 338 334 332 329 329 327 324 324 324 320 315 313 310 309 307 300 297 292 289 283 276 272 262 254 241 222 212 205 199 189 178
181 168 174 213 278 311 332 339 344 354 349 338 331 328 326 322 321 320 313 311 298 301 309 305 302 306 306 303 303 298 286 278 269 275 261 235 222 211 201 193 190 183 179
182 186 210 248 280 301 310 321 332 342 336 329 326 323 322 322 323 321 318 312 309 313 313 308 306 302 301 308 308 302 293 285 275 268 249 237 223 217 210 204 198 194 192
Height
1437 1439 1440 1442 1445 1447 1450 1454 1457 1461 1464 1466 1470 1474 1478 1482 1486 1489 1493 1496 1500 1503 1507 1510 1513 1516 1518 1520 1523 1526 1528 1530 1532 1533 1534 1534 1535 1535 1535 1535 1535 1534 1534
1434 1435 1437 1438 1440 1443 1446 1449 1453 1456 1460 1463 1467 1471 1474 1478 1482 1485 1489 1492 1496 1499 1503 1505 1508 1511 1514 1516 1519 1522 1524 1526 1528 1529 1530 1530 1532 1531 1531 1531 1531 1531 1531
1431 1431 1433 1434 1436 1438 1442 1445 1449 1453 1456 1460 1464 1468 1471 1474 1479 1482 1485 1488 1492 1495 1498 1502 1504 1507 1510 1512 1514 1517 1519 1521 1523 1525 1526 1526 1525 1526 1527 1527 1527 1527 1527
1430 1431 1432 1432 1434 1436 1439 1442 1446 1450 1454 1457 1460 1463 1467 1470 1473 1477 1481 1484 1488 1491 1494 1497 1500 1502 1505 1508 1510 1512 1514 1516 1518 1519 1521 1522 1521 1522 1521 1522 1522 1523 1523
1429 1430 1431 1432 1433 1434 1437 1440 1444 1447 1451 1454 1457 1460 1464 1467 1471 1474 1477 1480 1483 1486 1490 1492 1495 1498 1501 1503 1505 1507 1509 1511 1513 1514 1515 1516 1517 1517 1517 1517 1517 1518 1518
1430 1430 1431 1432 1432 1434 1436 1439 1442 1446 1449 1451 1454 1457 1460 1464 1467 1470 1472 1475 1478 1482 1485 1488 1491 1493 1496 1498 1500 1502 1504 1506 1508 1509 1510 1511 1512 1511 1512 1511 1512 1513 1513
1432 1432 1432 1432 1433 1434 1436 1438 1441 1444 1448 1450 1452 1455 1458 1461 1464 1466 1469 1471 1474 1476 1479 1483 1485 1488 1491 1493 1495 1497 1499 1500 1502 1503 1505 1506 1507 1507 1507 1507 1507 1507 1508
1435 1434 1434 1434 1434 1434 1436 1438 1441 1444 1446 1449 1451 1453 1456 1458 1461 1463 1465 1467 1469 1472 1475 1477 1480 1483 1486 1488 1490 1492 1493 1495 1496 1497 1499 1500 1501 1502 1502 1503 1503 1502 1502
1438 1437 1436 1435 1435 1436 1437 1438 1441 1444 1446 1448 1450 1452 1454 1456 1458 1459 1461 1463 1465 1468 1470 1472 1475 1478 1481 1483 1484 1486 1487 1489 1490 1491 1492 1492 1494 1495 1495 1496 1497 1498 1496
1441 1439 1438 1437 1437 1437 1438 1439 1441 1444 1445 1447 1449 1451 1452 1453 1455 1457 1458 1459 1461 1464 1465 1467 1470 1473 1475 1477 1478 1479 1481 1482 1483 1484 1485 1485 1486 1488 1488 1489 1490 1491 1491
1445 1443 1441 1441 1440 1440 1440 1441 1443 1445 1446 1447 1448 1450 1450 1451 1453 1454 1455 1456 1458 1459 1461 1463 1465 1468 1469 1471 1472 1473 1473 1475 1476 1477 1478 1478 1479 1480 1481 1482 1482 1484 1485
1450 1448 1446 1444 1444 1443 1443 1444 1445 1445 1446 1447 1448 1449 1449 1450 1451 1452 1453 1454 1455 1456 1457 1458 1460 1462 1463 1464 1465 1466 1467 1468 1468 1469 1470 1471 1472 1472 1473 1474 1475 1477 1478
1454 1452 1450 1449 1447 1447 1446 1447 1446 1447 1447 1448 1448 1449 1449 1450 1450 1451 1451 1451 1452 1452 1453 1454 1456 1457 1457 1458 1459 1460 1460 1461 1461 1462 1462 1463 1464 1465 1466 1467 1468 1469 1471
1458 1456 1454 1452 1451 1451 1450 1450 1449 1449 1449 1449 1449 1449 1449 1449 1449 1449 1449 1449 1449 1449 1450 1450 1451 1451 1452 1452 1453 1453 1454 1454 1454 1455 1455 1456 1457 1458 1459 1461 1461 1463 1464
1461 1459 1458 1457 1456 1455 1454 1453 1452 1451 1451 1450 1450 1450 1449 1449 1448 1448 1447 1447 1447 1447 1447 1446 1446 1446 1447 1447 1447 1447 1447 1447 1447 1448 1448 1449 1450 1451 1453 1454 1455 1456 1457
1464 1463 1462 1460 1459 1458 1457 1455 1454 1453 1452 1451 1451 1450 1449 1448 1447 1446 1445 1445 1445 1444 1444 1443 1442 1442 1442 1442 1442 1441 1441 1441 1441 1441 1442 1442 1443 1445 1446 1447 1448 1450 1451
1467 1466 1464 1463 1462 1460 1459 1457 1456 1455 1454 1452 1451 1450 1449 1448 1446 1445 1444 1443 1442 1441 1440 1439 1439 1438 1437 1437 1436 1436 1435 1435 1435 1435 1435 1436 1436 1438 1439 1440 1441 1442 1444
1467 1467 1466 1465 1463 1462 1461 1459 1458 1456 1454 1453 1451 1450 1449 1447 1445 1444 1442 1441 1440 1438 1437 1436 1435 1434 1433 1432 1431 1430 1430 1429 1429 1429 1429 1429 1430 1431 1432 1433 1434 1436 1437
1468 1467 1466 1466 1464 1463 1461 1460 1458 1456 1454 1453 1451 1449 1447 1446 1444 1442 1440 1439 1437 1436 1434 1433 1431 1429 1428 1428 1427 1426 1424 1423 1423 1423 1423 1423 1424 1425 1426 1427 1428 1429 1431
1468 1467 1467 1466 1464 1463 1462 1460 1458 1456 1454 1453 1451 1449 1447 1445 1443 1441 1439 1437 1435 1433 1431 1429 1427 1425 1424 1423 1422 1420 1419 1418 1417 1416 1416 1417 1417 1418 1419 1420 1422 1423 1425
1467 1467 1466 1465 1464 1463 1462 1460 1458 1456 1454 1452 1450 1448 1446 1444 1441 1439 1437 1435 1432 1430 1427 1425 1423 1421 1419 1418 1417 1415 1414 1413 1411 1410 1410 1410 1411 1412 1413 1414 1416 1417 1419
1466 1466 1465 1464 1463 1462 1460 1459 1457 1455 1453 1451 1449 1447 1444 1442 1439 1437 1434 1432 1429 1427 1424 1421 1419 1417 1415 1413 1411 1410 1409 1407 1406 1405 1404 1404 1405 1405 1407 1408 1410 1412 1413
1465 1464 1464 1463 1462 1460 1459 1457 1455 1453 1451 1449 1447 1445 1442 1440 1437 1435 1432 1429 1426 1424 1421 1418 1415 1412 1410 1408 1406 1404 1403 1401 1400 1399 1399 1399 1399 1399 1401 1402 1404 1406 1407
1462 1462 1462 1461 1460 1458 1457 1455 1453 1451 1449 1446 1444 1442 1440 1437 1434 1432 1429 1426 1423 1420 1418 1415 1412 1408 1406 1403 1401 1399 1397 1396 1394 1393 1393 1393 1393 1394 1395 1397 1399 1400 1402
1460 1459 1459 1458 1457 1456 1455 1453 1451 1449 1446 1444 1442 1439 1437 1434 1431 1428 1426 1422 1420 1418 1415 1411 1408 1405 1401 1399 1397 1395 1392 1391 1390 1388 1388 1387 1388 1388 1389 1391 1393 1395 1397
1457 1457 1456 1456 1455 1454 1452 1451 1449 1446 1444 1441 1439 1436 1433 1430 1427 1424 1422 1419 1417 1414 1411 1408 1405 1401 1398 1395 1392 1390 1387 1386 1385 1384 1383 1382 1383 1383 1385 1386 1388 1390 1392